| time (UTC) | temp C | wind direction | speed KPH | gust KPH | rain 1hr cm | rain 24hr cm | rain mn cm | humidity % | barometer mb |
| 20260504081543 | -17 | 229 | 8.0 | 0.0 | 0.00 | 0.00 | 0.00 | 1003.5 | |
| 20260504044529 | -17 | 221 | 11.3 | 0.0 | 0.00 | 0.00 | 0.00 | 1001.3 | |
| 20260504043036 | -17 | 225 | 6.4 | 0.0 | 0.00 | 0.00 | 0.00 | 1001.4 | |
| 20260504041521 | -17 | 229 | 6.4 | 0.0 | 0.00 | 0.00 | 0.00 | 1001.2 | |
| 20260504040016 | -17 | 245 | 9.7 | 0.0 | 0.00 | 0.00 | 0.00 | 1001.0 | |
| 20260504034513 | -17 | 220 | 8.0 | 0.0 | 0.00 | 0.00 | 0.00 | 1000.9 | |
| 20260504033007 | -17 | 219 | 8.0 | 0.0 | 0.00 | 0.00 | 0.00 | 1000.6 | |
| 20260504031504 | -17 | 250 | 9.7 | 0.0 | 0.00 | 0.00 | 0.00 | 1000.3 | |
| 20260504030100 | -17 | 254 | 6.4 | 0.0 | 0.00 | 0.00 | 0.00 | 1000.1 | |
| 20260504024555 | -17 | 243 | 11.3 | 0.0 | 0.00 | 0.00 | 0.00 | 999.9 | |
| 20260504023050 | -17 | 240 | 9.7 | 0.0 | 0.00 | 0.00 | 0.00 | 999.8 | |
| 20260504021546 | -17 | 259 | 11.3 | 0.0 | 0.00 | 0.00 | 0.00 | 999.8 | |
| 20260504020115 | -17 | 283 | 11.3 | 0.0 | 0.00 | 0.00 | 0.00 | 999.7 | |
| 20260504014553 | -17 | 244 | 11.3 | 0.0 | 0.00 | 0.00 | 0.00 | 999.7 | |
| 20260504013037 | -17 | 250 | 12.9 | 0.0 | 0.00 | 0.00 | 0.00 | 999.8 | |
| 20260504011528 | -17 | 231 | 12.9 | 0.0 | 0.00 | 0.00 | 0.00 | 999.8 | |
| 20260504010024 | -17 | 225 | 14.5 | 0.0 | 0.00 | 0.00 | 0.00 | 999.9 | |
| 20260504004520 | -17 | 232 | 12.9 | 0.0 | 0.00 | 0.00 | 0.00 | 1000.1 | |
| 20260504003016 | -17 | 217 | 12.9 | 0.0 | 0.00 | 0.00 | 0.00 | 1000.0 | |
| 20260504001511 | -17 | 236 | 14.5 | 0.0 | 0.00 | 0.00 | 0.00 | 1000.1 | |
| 20260504000006 | -17 | 265 | 16.1 | 0.0 | 0.00 | 0.00 | 0.00 | 1000.3 | |
| 20260503234503 | -17 | 225 | 22.5 | 0.0 | 0.00 | 0.00 | 0.00 | 1000.1 | |
| 20260503233102 | -17 | 224 | 20.9 | 0.0 | 0.00 | 0.00 | 0.00 | 1000.3 | |
| 20260503231553 | -17 | 260 | 11.3 | 0.0 | 0.00 | 0.00 | 0.00 | 1000.1 | |
| 20260503230107 | -17 | 238 | 11.3 | 0.0 | 0.00 | 0.00 | 0.00 | 1000.5 | |
| 20260503224544 | -17 | 240 | 16.1 | 0.0 | 0.00 | 0.00 | 0.00 | 1000.5 | |
| 20260503223040 | -17 | 241 | 14.5 | 0.0 | 0.00 | 0.00 | 0.00 | 1000.7 | |
| 20260503221536 | -17 | 268 | 17.7 | 0.0 | 0.00 | 0.00 | 0.00 | 1000.9 | |
| 20260503220041 | -17 | 236 | 17.7 | 0.0 | 0.00 | 0.00 | 0.00 | 1001.1 | |
| 20260503214527 | -17 | 224 | 14.5 | 0.0 | 0.00 | 0.00 | 0.00 | 1001.2 | |
| 20260503213022 | -17 | 246 | 12.9 | 0.0 | 0.00 | 0.00 | 0.00 | 1001.7 | |
| 20260503211518 | -17 | 242 | 17.7 | 0.0 | 0.00 | 0.00 | 0.00 | 1001.8 | |
| 20260503210014 | -17 | 300 | 14.5 | 0.0 | 0.00 | 0.00 | 0.00 | 1002.1 | |
| 20260503204509 | -17 | 240 | 16.1 | 0.0 | 0.00 | 0.00 | 0.00 | 1002.3 | |
| 20260503203013 | -17 | 257 | 12.9 | 0.0 | 0.00 | 0.00 | 0.00 | 1002.3 | |
| 20260503201501 | -17 | 246 | 12.9 | 0.0 | 0.00 | 0.00 | 0.00 | 1002.6 | |
| 20260503200100 | -17 | 224 | 19.3 | 0.0 | 0.00 | 0.00 | 0.00 | 1002.8 | |
| 20260503194552 | -17 | 228 | 14.5 | 0.0 | 0.00 | 0.00 | 0.00 | 1003.2 | |
| 20260503193048 | -17 | 246 | 16.1 | 0.0 | 0.00 | 0.00 | 0.00 | 1003.5 | |
| 20260503191547 | -17 | 192 | 11.3 | 0.0 | 0.00 | 0.00 | 0.00 | 1003.8 | |
| 20260503190050 | -17 | 268 | 9.7 | 0.0 | 0.00 | 0.00 | 0.00 | 1004.0 | |
| 20260503184535 | -17 | 262 | 3.2 | 0.0 | 0.00 | 0.00 | 0.00 | 1004.2 | |
| 20260503183031 | -17 | 240 | 1.6 | 0.0 | 0.00 | 0.00 | 0.00 | 1004.7 | |
| 20260503181525 | -17 | 247 | 1.6 | 0.0 | 0.00 | 0.00 | 0.00 | 1005.0 | |
| 20260503180021 | -17 | 293 | 0.0 | 0.0 | 0.00 | 0.00 | 0.00 | 1005.3 | |
| 20260503174516 | -17 | 258 | 1.6 | 0.0 | 0.00 | 0.00 | 0.00 | 1005.5 | |
| 20260503173012 | -17 | 308 | 1.6 | 0.0 | 0.00 | 0.00 | 0.00 | 1005.6 | |
| 20260503171507 | -17 | 245 | 0.0 | 0.0 | 0.00 | 0.00 | 0.00 | 1005.7 |